Regional Weather Roundup
Issued by NWS Austin/San Antonio, TX

Home | Current Version | Previous Version | Text Only | Print | Product List | Glossary On
Versions: 1 2 3 4 5 6 7 8 9 10 11 12 13 14 15 16 17 18 19 20 21 22 23 24 25 26 27 28 29 30 31 32 33 34 35 36 37 38 39 40 41 42 43 44 45 46 47 48 49 50
537
ASUS44 KEWX 231702
RWREWX
SOUTH TEXAS REGIONAL WEATHER ROUNDUP
NATIONAL WEATHER SERVICE AUSTIN/SAN ANTONIO TX
1200 PM CDT SUN JUL 23 2017

NOTE: "FAIR" INDICATED FEW OR NO CLOUDS BELOW 12,000 FEET WITH NO
SIGNIFICANT WEATHER AND/OR OBSTRUCTIONS TO VISIBILITY.

* - THESE STATIONS ARE NOT NWS OR FAA STATIONS...AND ARE NOT SUBJECT
    TO NWS AND FAA QUALITY CONTROL.

TXZ171-172-183>190-231800-
TEXAS HILL COUNTRY AND EDWARDS PLATEAU

CITY           SKY/WX    TMP DP  RH WIND       PRES   REMARKS
JUNCTION       SUNNY     92  68  45 S10       29.99S HX  96
*LLANO         MOSUNNY   91  70  49 CALM      29.99S HX  97
BURNET         MOSUNNY   92  69  47 S9G20     30.00R HX  97
*HORSESHOE BAY MOSUNNY   94  69  43 W6        29.96F HX  99
*KERRVILLE     SUNNY     91  75  58 SW7       30.00S HX 102
*FREDERICKSBRG SUNNY     89  66  45 SW8       30.00S HX  91
*ROCKSPRINGS   MOSUNNY   90  66  45 SW7       30.05S HX  92
*BOERNE STAGE  SUNNY     88  68  51 S3        30.00F HX  91
*CASTROVILLE   SUNNY     92  67  43 S5        29.97S HX  95
HONDO          SUNNY     91  70  49 VRB3      29.96F HAZE    HX  96
*UVALDE        SUNNY     90  70  51 CALM      29.96F HX  95
DEL RIO        SUNNY     91  68  46 VRB7      29.93F HX  95
LAUGHLIN AFB   NOT AVBL
CARRIZO SPRGS  SUNNY     91  70  49 SE8       29.92S HX  97
*EAGLE PASS    NOT AVBL
$$

TXZ173-191>194-202-209-217>225-228-231800-
CENTRAL AND SOUTH CENTRAL TEXAS

CITY           SKY/WX    TMP DP  RH WIND       PRES   REMARKS
GEORGETOWN     SUNNY     90  72  55 S14G22    29.95S HX  96
AUSTIN/BERGSTM MOSUNNY   93  73  52 S10       29.94F HX 102
AUSTIN/MABRY   SUNNY     94  70  45 CALM      29.96S HX 100
*AUSTIN/EXEC     N/A     91  73  55 SW9       29.96S HX 100
*LAGO VISTA    MOSUNNY   92  70  47 SW5       29.98S HX  97
SAN MARCOS     SUNNY     91  66  43 SW15G21   29.97S HX  94
NEW BRAUNFELS  SUNNY     94  71  47 SW13G18   29.95S HX 101
RANDOLPH AFB   SUNNY     91  71  50 SW5       29.96S HX  97
PT SAN ANTONIO NOT AVBL
SAN ANTONIO    MOSUNNY   91  70  49 SW9       29.97S HX  96
STINSON FIELD  SUNNY     94  70  45 S8        29.93F HX 100
*LA GRANGE     SUNNY     93  75  55 S8G16     29.93F HX 104
*GIDDINGS      SUNNY     92  68  45 SW10G20   29.96S HX  96
*GONZALES      MOSUNNY   92  74  55 S12G22    29.95S HX 102
$$

TXZ163>164-176>182-195>201-210>213-226-227-235-231800-
SOUTHEAST TEXAS

CITY           SKY/WX    TMP DP  RH WIND       PRES   REMARKS
COLLEGE STN    SUNNY     92  71  50 SW10G20   29.95S HX  98
*BRYAN         SUNNY     92  71  50 SW12G17   29.97R HX  98
*CALDWELL      NOT AVBL
*CROCKETT      CLOUDY    86  77  74 SW6       29.99S HX  97
*BRENHAM       SUNNY     93  72  50 S13G20    29.97S HX 101
HUNTSVILLE     PTSUNNY   89  73  59 SW10G18   29.97S HX  97
CONROE         MOSUNNY   91  75  59 S9        29.97S HX 101
HOUSTON BUSH   PTSUNNY   90  75  61 S7        29.97S HX 100
HOUSTON HOBBY  PTSUNNY   93  73  52 SW9       29.96S HX 102
*HOUSTON SW AP PTSUNNY   90  77  65 SW7       29.98S HX 102
PEARLAND       MOSUNNY   92  72  51 S14       29.98S HX  99
HOUSTON HOOKS  PTSUNNY   89  75  63 S12G18    29.96F HX  99
ELLINGTON FLD  NOT AVBL
SUGAR LAND     PTSUNNY   90  75  61 SW9       29.96S HX 100
*HOUSTON EXEC  MOSUNNY   91  75  59 SW12G21   29.98S HX 102
*CLEVELAND MUN PTSUNNY   90  76  63 SW9       29.98S HX 101
*WHARTON       MOSUNNY   90  70  51 SW12      29.98R HX  95
*COLUMBUS      FAIR      91  71  50 SW10G18   29.97F HX  97
*EAGLE LAKE    MOSUNNY   93  75  57 SW13      29.96F HX 104
$$

TXZ214>216-236>238-231800-
THE UPPER TEXAS COAST

CITY           SKY/WX    TMP DP  RH WIND       PRES   REMARKS
*ORANGE        CLOUDY    86  80  82 SW6       30.00S HX 100
PORT ARTHUR    CLOUDY    86  78  77 W6        29.97F HX  98
GALVESTON      PTSUNNY   89  77  67 SW17G23   29.99R HX 101
ANGLETON       MOSUNNY   91  74  57 SW14G21   29.98R HX 100
*BAY CITY      PTSUNNY   91  74  58 S14G21    29.98R HX 100
PALACIOS       MOSUNNY   88  75  65 S16       29.97R HX  97
$$

TXZ229>234-239>247-231800-
TEXAS COASTAL BEND AND RIO GRANDE PLAINS

CITY           SKY/WX    TMP DP  RH WIND       PRES   REMARKS
VICTORIA       MOSUNNY   94  71  47 S15       29.96R HX 101
*BEEVILLE      SUNNY     93  73  52 S10G23    29.95R HX 102
ROCKPORT       SUNNY     92  72  51 S9G20     29.95R HX  99
*PORT ARANSAS  MOSUNNY   88  74  63 S18G26    29.95S HX  97
*PORT LAVACA   PTSUNNY   91  73  56 S15       29.97R HX  99
*INGLESIDE     SUNNY     91  75  60 MISG      29.94S HX 102
CORPUS CHRISTI MOSUNNY   92  73  53 S16G28    29.93S HX 100
CORPUS NAS     MOSUNNY   91  76  61 S21G28    29.94S HX 103
*ROBSTOWN      SUNNY     93  73  50 S15G23    29.94R HX 102
ALICE          SUNNY     94  71  47 S16G25    29.92S HX 101
KINGSVILLE NAS SUNNY     95  75  52 S17G24    29.92F HX 107
COTULLA        SUNNY     92  67  43 S5        29.93S HX  95
*FAITH RANCH   SUNNY     93  68  43 SE8       29.93S HX  97
LAREDO         SUNNY     93  71  48 SE9G18      N/A  HX 100
$$

TXZ248>255-231800-
DEEP SOUTH TEXAS

CITY           SKY/WX    TMP DP  RH WIND       PRES   REMARKS
BROWNSVILLE    LGT RAIN  90  73  57 S22G28    29.95S HX  98
PORT ISABEL    SUNNY     92  72  51 S18G29    29.94R HX  99
*SOUTH PADRE   NOT AVBL
HARLINGEN      SUNNY     94  71  47 S20G30    29.93S HX 101
*HEBBRONVILLE  SUNNY     89  69  50 S14       29.94S HX  93
MCALLEN        SUNNY     96  69  41 S15G26    29.92S HX 102
*WESLACO       SUNNY     95  68  42 S17G25    29.92S HX  99
FALFURRIAS     SUNNY     93  71  49 S14G23    29.92S HX 100
EDINBURG       SUNNY     97  62  31 S18G24    29.92F HX  98
*ZAPATA        SUNNY     92  67  43 SE10      29.91S HX  95
$$

TXZ213>215-236>238-242>244-246-247-251-254-255-231800-
CMAN STATIONS

STATION/POSITION TIME  TEMP    WIND        PRES    WAVE
                       AIR SEA DIR/SP/G            HT/PER
                 (UTC) (F)     (DEG/KT/KT) (MB)    (FT/S)
SABINE PASS      1630   87 88  220/  8/ 13 1016.9
SEA RIM ST PARK  1600   86     230/ 13/ 16 1015.7
NORTH JETTY/GLS  1630      86  200/ 16/ 20 1014.6
EAGLE POINT      1630   88 88  230/  9/ 12 1015.1
MORGANS POINT    1630   89 88  240/  9/ 12 1014.6
MISSION/ARANSAS  1600          200/ 18     1014.0
PORT O`CONNOR    1630   86     200/ 17/ 22 1014.1
PORT ARANSAS     1600   85 85  180/ 22/ 23 1013.9
MALAQUITE BEACH  1630   84 85  160/ 22/ 25 1013.2
BAFFIN BAY       1630   85 84              1014.0
PORT ISABEL      1630   87 85              1014.3
$$




USA.gov is the U.S. government's official web portal to all federal, state and local government web resources and services.